カタログに戻る

COSMOS 2147

運用中軍事PO
NORAD 21303·PAYLOAD·🇷🇺 Russia

打ち上げ May 16, 1991 から Plesetsk Cosmodrome

Loading…

次のパス (今後24時間)

TLE

最新Source: Space-Track

元期: Sep 14, 2026, 07:28 UTC

1 21303U 91033E   26257.31116314  .00000012  00000-0  63419-5 0  9998
2 21303  82.5658 217.9577 0019271 155.6519 359.9990 12.65167699631416

AllMySatでCOSMOS 2147をリアルタイム追跡

Download on the App Store